Regional Weather Roundup
Issued by NWS

Home | Current Version | Previous Version | Graphics & Text | Print | Product List | Glossary On
Versions: 1 2 3 4 5 6 7 8 9 10 11 12 13 14 15 16 17 18 19 20 21 22 23 24 25 26 27 28 29 30 31 32 33 34 35 36 37 38 39 40 41 42 43 44 45 46 47 48 49 50
000
ASUS43 KDMX 010104
RWRIA

WEATHER ROUNDUP FOR IOWA
NATIONAL WEATHER SERVICE DES MOINES IA
  ISSUED BY NWS QUAD CITIES IA IL
700 PM CST SAT JAN 31 2015

NOTE: "FAIR" INDICATES FEW OR NO CLOUDS BELOW 12,000 FEET WITH NO
SIGNIFICANT WEATHER AND/OR OBSTRUCTIONS TO VISIBILITY.

* - THESE STATIONS ARE NOT NWS STATIONS...THUS NOT UNDER NWS
QUALITY CONTROL.  THEY ALSO DO NOT REPORT WEATHER SUCH
AS PRECIPITATION OR FOG.

IAZ001>003-012>014-020>022-031>034-043>046-010200-
   NORTHWEST IOWA

CITY           SKY/WX    TMP DP  RH WIND       PRES   REMARKS
CARROLL *      LGT SNOW  32  32 100 E10       30.00S WCI  24
CHEROKEE *     LGT SNOW  29  29 100 NE7       30.01F WCI  22
DENNISON *     LGT SNOW  32  32 100 E8        29.97S WCI  25
LE MARS *      LGT SNOW  28  28 100 MISG      30.01S
ORANGE CITY *  LGT SNOW  28  27  93 E12       30.00F WCI  18
SIOUX CITY     LGT SNOW  33  31  92 E12       29.98F FOG     WCI  24
SPENCER        LGT SNOW  29  26  89 NE17      30.04S FOG     WCI  17
$$

IAZ055>058-069>071-079>083-090>094-010200-
   SOUTHWEST IOWA

CITY           SKY/WX    TMP DP  RH WIND       PRES   REMARKS
ATLANTIC *     LGT SNOW  34  34 100 E3        29.97F
AUDUBON *      LGT SNOW  34  30  86 E3        29.99F
CLARINDA *     LGT SNOW  34  34 100 SE9G16    29.99F WCI  26
COUNCIL BLFS * LGT SNOW  32  32 100 SE7       29.93F WCI  26
CRESTON *      LGT SNOW  32  32 100 SE14      29.98F VSB 1   WCI  22
HARLAN *       LGT SNOW  32  32 100 E5        30.00F WCI  27
LAMONI         LGT SNOW  32  32 100 SE8       30.01F VSB 1   WCI  25
$$

IAZ047>049-059>061-072>074-084-010200-
   CENTRAL IOWA

CITY           SKY/WX    TMP DP  RH WIND       PRES   REMARKS
AMES           LGT SNOW  32  31  96 E6        30.04F VSB 3/4 WCI  26
ANKENY *       LGT SNOW  32  32 100 E3        30.04F
BOONE *        LGT SNOW  32  32 100 MISG      30.02S VSB 1
CHARITON *     LGT SNOW  34  32  93 SE8       30.04S WCI  27
DES MOINES     LGT SNOW  34  32  92 SE7       30.03F VSB 1   WCI  28
GRINNELL *     RAIN      34  33  97 SE5       30.06F WCI  30
KNOXVILLE *    LGT SNOW  34  32  93 SE7       30.04S WCI  28
MARSHALLTOWN   LGT SNOW  32  32 100 E6        30.05F FOG     WCI  26
PELLA *        RAIN      35  35  99 S9        30.07S WCI  28
PERRY *        LGT SNOW  33  33 100 E6        30.02S WCI  27
$$

IAZ004>006-015-016-023>025-035-036-010200-
   NORTH CENTRAL IOWA

CITY           SKY/WX    TMP DP  RH WIND       PRES   REMARKS
ALGONA *       LGT SNOW  30  30 100 NE12      30.05S WCI  21
CLARION *      LGT SNOW  30  30 100 E15       30.04F WCI  19
ESTHERVILLE    LGT SNOW  27  27 100 NE17      30.05S VSB 3/4 WCI  14
FORT DODGE *   CLOUDY    32  30  93 CALM      30.03S
MASON CITY     LGT SNOW  30  28  92 E13       30.08S FOG     WCI  20
WEBSTER CITY * LGT SNOW  32  32 100 SE6       30.02S WCI  26
IOWA FALLS *   LGT SNOW  33  32  98 E3        30.06S
$$

IAZ007>011-017>019-026>030-037>042-050>054-066-010200-
   NORTHEAST IOWA

CITY           SKY/WX    TMP DP  RH WIND       PRES   REMARKS
CEDAR RAPIDS   LGT RAIN  35  35 100 S5        30.08F FOG     WCI  31
CHARLES CITY * LGT SNOW  30  30 100 E12       30.09S WCI  21
CLINTON *      CLOUDY    32  30  93 S5        30.15F WCI  27
DECORAH *      LGT SNOW  28  27  93 NE8       30.11S VSB 3/4 WCI  20
DUBUQUE        LGT SNOW  30  28  92 NE8       30.11F FOG     WCI  22
OELWEIN *      LGT SNOW  30  30 100 E9        30.09S WCI  22
WATERLOO       LGT SNOW  32  32 100 E8        30.07F FOG     WCI  25
$$

IAZ064-065-067-068-078-010200-
   EAST CENTRAL IOWA

CITY           SKY/WX    TMP DP  RH WIND       PRES   REMARKS
DAVENPORT      LGT SNOW  32  30  92 SE5       30.13F FOG     WCI  27
IOWA CITY      LGT RAIN  35  34  96 SE6       30.11F FOG     WCI  30
MT. PLEASANT * RAIN      34  34 100 SE7       30.12F WCI  28
MUSCATINE *    MIX PCPN  36  34  93 SE6       30.13S WCI  31
QUAD CITIES    LGT RAIN  34  32  92 SE3       30.13S FOG
$$

IAZ062-063-075>077-085>089-095>099-010200-
   SOUTHEAST IOWA

CITY           SKY/WX    TMP DP  RH WIND       PRES   REMARKS
BURLINGTON     CLOUDY    35  35 100 S5        30.12F FOG     WCI  31
FAIRFIELD *    MIX PCPN  36  36 100 SE10      30.09F WCI  28
FORT MADISON * DRIZZLE   36  36 100 S7        30.13F WCI  30
KEOKUK *       MIX PCPN  36  36 100 S8        30.12F WCI  29
OTTUMWA        LGT RAIN  36  36 100 S10       30.07F WCI  28
WASHINGTON *   CLOUDY    36  36 100 S8        30.10S FOG     WCI  29
$$

ABBREVIATIONS USED IN REMARKS
   TC - TEMPERATURES IN CELSIUS
  WCI - WIND CHILL INDEX
   HX - HEAT INDEX
  VSB - VISIBILITY
$$


USA.gov is the U.S. government's official web portal to all federal, state and local government web resources and services.